Time,TemperatureF,DewpointF,PressureIn,WindDirection,WindDirectionDegrees,WindSpeedMPH,WindSpeedGustMPH,Humidity,HourlyPrecipIn,Conditions,Clouds,dailyrainin,SoftwareType,DateUTC
2013-06-03 00:03:00,47.3,44.0,29.96,NE,45,0.0,0.0,88,0.00,,,0.00,WUHU21623XXSP,2013-06-03 05:03:00,
2013-06-03 00:08:00,47.3,44.0,29.96,ENE,67,0.0,0.0,88,0.00,,,0.00,WUHU21623XXSP,2013-06-03 05:08:00,
2013-06-03 00:13:00,47.1,43.8,29.97,ENE,67,0.0,0.0,88,0.00,,,0.00,WUHU21623XXSP,2013-06-03 05:13:00,
2013-06-03 00:18:00,46.9,43.6,29.97,NE,45,0.0,0.0,88,0.00,,,0.00,WUHU21623XXSP,2013-06-03 05:18:00,
2013-06-03 00:23:00,46.9,43.9,29.97,East,90,0.0,0.0,89,0.00,,,0.00,WUHU21623XXSP,2013-06-03 05:23:00,
2013-06-03 00:28:00,46.8,43.7,29.97,ESE,112,0.0,0.0,89,0.00,,,0.00,WUHU21623XXSP,2013-06-03 05:28:00,
2013-06-03 00:33:00,46.8,43.7,29.97,ENE,67,0.0,0.0,89,0.00,,,0.00,WUHU21623XXSP,2013-06-03 05:33:00,
2013-06-03 00:38:00,46.8,43.7,29.97,East,90,0.0,0.0,89,0.00,,,0.00,WUHU21623XXSP,2013-06-03 05:38:00,
2013-06-03 00:43:00,46.6,43.6,29.97,ENE,67,0.0,0.0,89,0.00,,,0.00,WUHU21623XXSP,2013-06-03 05:43:00,
2013-06-03 00:48:00,46.6,43.6,29.97,ENE,67,0.0,0.0,89,0.00,,,0.00,WUHU21623XXSP,2013-06-03 05:48:00,
2013-06-03 00:53:00,46.6,43.9,29.97,SSE,157,0.0,0.0,90,0.00,,,0.00,WUHU21623XXSP,2013-06-03 05:53:00,
2013-06-03 00:58:00,46.6,43.9,29.97,SE,135,0.0,1.3,90,0.00,,,0.00,WUHU21623XXSP,2013-06-03 05:58:00,
2013-06-03 01:03:00,46.2,43.5,29.97,SSE,157,0.0,1.3,90,0.00,,,0.00,WUHU21623XXSP,2013-06-03 06:03:00,
2013-06-03 01:08:00,46.2,43.5,29.98,SSE,157,0.0,0.0,90,0.00,,,0.00,WUHU21623XXSP,2013-06-03 06:08:00,
2013-06-03 01:13:00,45.9,43.3,29.98,SSE,157,0.0,0.0,90,0.00,,,0.00,WUHU21623XXSP,2013-06-03 06:13:00,
2013-06-03 01:18:00,45.7,43.0,29.98,South,180,0.0,0.0,90,0.00,,,0.00,WUHU21623XXSP,2013-06-03 06:18:00,
2013-06-03 01:23:00,45.7,43.0,29.98,SSW,202,0.0,1.8,90,0.00,,,0.00,WUHU21623XXSP,2013-06-03 06:23:00,
2013-06-03 01:28:00,45.5,42.8,29.97,SSW,202,0.0,2.5,90,0.00,,,0.00,WUHU21623XXSP,2013-06-03 06:28:00,
2013-06-03 01:33:00,45.3,42.6,29.98,SSW,202,0.0,2.5,90,0.00,,,0.00,WUHU21623XXSP,2013-06-03 06:33:00,
2013-06-03 01:38:00,45.1,42.4,29.98,SSE,157,0.0,0.0,90,0.00,,,0.00,WUHU21623XXSP,2013-06-03 06:38:00,
2013-06-03 01:43:00,45.1,42.4,29.98,SSE,157,0.0,0.0,90,0.00,,,0.00,WUHU21623XXSP,2013-06-03 06:43:00,
2013-06-03 01:48:00,45.0,42.3,29.98,SSE,157,0.0,0.0,90,0.00,,,0.00,WUHU21623XXSP,2013-06-03 06:48:00,
2013-06-03 01:53:00,45.0,42.3,29.98,SSE,157,0.0,0.0,90,0.00,,,0.00,WUHU21623XXSP,2013-06-03 06:53:00,
2013-06-03 01:58:00,45.0,42.3,29.98,SSE,157,0.0,0.0,90,0.00,,,0.00,WUHU21623XXSP,2013-06-03 06:58:00,
2013-06-03 02:03:00,45.0,42.5,29.98,ENE,67,0.0,0.0,91,0.00,,,0.00,WUHU21623XXSP,2013-06-03 07:03:00,
2013-06-03 02:08:00,45.0,42.5,29.99,NNE,22,0.0,0.0,91,0.00,,,0.00,WUHU21623XXSP,2013-06-03 07:08:00,
2013-06-03 02:13:00,45.1,42.7,29.99,NNE,22,0.0,0.0,91,0.00,,,0.00,WUHU21623XXSP,2013-06-03 07:13:00,
2013-06-03 02:18:00,45.0,42.5,29.99,NE,45,0.0,0.0,91,0.00,,,0.00,WUHU21623XXSP,2013-06-03 07:18:00,
2013-06-03 02:23:00,45.0,42.5,29.98,NE,45,0.0,0.0,91,0.00,,,0.00,WUHU21623XXSP,2013-06-03 07:23:00,
2013-06-03 02:28:00,45.0,42.5,29.99,NE,45,0.0,0.0,91,0.00,,,0.00,WUHU21623XXSP,2013-06-03 07:28:00,
2013-06-03 02:33:00,44.6,42.4,29.99,ESE,112,0.0,0.0,92,0.00,,,0.00,WUHU21623XXSP,2013-06-03 07:33:00,
2013-06-03 02:38:00,44.4,42.3,29.98,ESE,112,0.0,0.0,92,0.00,,,0.00,WUHU21623XXSP,2013-06-03 07:38:00,
2013-06-03 02:43:00,44.2,42.1,29.98,South,180,0.0,0.0,92,0.00,,,0.00,WUHU21623XXSP,2013-06-03 07:43:00,
2013-06-03 02:48:00,44.2,42.1,29.99,South,180,0.0,0.0,92,0.00,,,0.00,WUHU21623XXSP,2013-06-03 07:48:00,
2013-06-03 02:53:00,44.2,42.1,29.98,SSW,202,0.0,0.0,92,0.00,,,0.00,WUHU21623XXSP,2013-06-03 07:53:00,
2013-06-03 02:58:00,44.2,42.1,29.98,South,180,0.0,0.0,92,0.00,,,0.00,WUHU21623XXSP,2013-06-03 07:58:00,
2013-06-03 03:03:00,44.2,42.1,29.98,South,180,0.0,0.0,92,0.00,,,0.00,WUHU21623XXSP,2013-06-03 08:03:00,
2013-06-03 03:08:00,43.5,41.4,29.98,South,180,0.0,0.0,92,0.00,,,0.00,WUHU21623XXSP,2013-06-03 08:08:00,
2013-06-03 03:13:00,43.3,41.2,29.99,SSE,157,0.0,0.0,92,0.00,,,0.00,WUHU21623XXSP,2013-06-03 08:13:00,
2013-06-03 03:18:00,43.5,41.4,29.99,SSE,157,0.0,0.0,92,0.00,,,0.00,WUHU21623XXSP,2013-06-03 08:18:00,
2013-06-03 03:23:00,43.3,41.2,29.98,SSE,157,0.0,0.0,92,0.00,,,0.00,WUHU21623XXSP,2013-06-03 08:23:00,
2013-06-03 03:28:00,43.2,41.0,29.98,South,180,0.0,0.0,92,0.00,,,0.00,WUHU21623XXSP,2013-06-03 08:28:00,
2013-06-03 03:33:00,43.2,41.0,29.98,South,180,0.0,0.0,92,0.00,,,0.00,WUHU21623XXSP,2013-06-03 08:33:00,
2013-06-03 03:38:00,43.2,40.8,29.98,South,180,0.0,0.0,92,0.00,,,0.00,WUHU21623XXSP,2013-06-03 08:38:00,
2013-06-03 03:43:00,43.2,41.0,29.98,South,180,0.0,0.0,92,0.00,,,0.00,WUHU21623XXSP,2013-06-03 08:43:00,
2013-06-03 03:48:00,43.3,41.2,29.98,South,180,0.0,0.0,92,0.00,,,0.00,WUHU21623XXSP,2013-06-03 08:48:00,
2013-06-03 03:53:00,43.3,41.2,29.98,South,180,0.0,0.0,92,0.00,,,0.00,WUHU21623XXSP,2013-06-03 08:53:00,
2013-06-03 03:58:00,43.3,41.2,29.98,South,180,0.0,0.0,92,0.00,,,0.00,WUHU21623XXSP,2013-06-03 08:58:00,
2013-06-03 04:03:00,43.2,41.0,29.98,West,270,0.0,0.0,92,0.00,,,0.00,WUHU21623XXSP,2013-06-03 09:03:00,
2013-06-03 04:08:00,43.2,41.0,29.97,West,270,0.0,0.0,92,0.00,,,0.00,WUHU21623XXSP,2013-06-03 09:08:00,
2013-06-03 04:13:00,43.0,40.8,29.98,NE,45,0.0,0.0,92,0.00,,,0.00,WUHU21623XXSP,2013-06-03 09:13:00,
2013-06-03 04:18:00,43.2,41.3,29.99,ESE,112,0.0,0.0,93,0.00,,,0.00,WUHU21623XXSP,2013-06-03 09:18:00,
2013-06-03 04:23:00,43.5,41.6,29.99,SE,135,0.0,0.0,93,0.00,,,0.00,WUHU21623XXSP,2013-06-03 09:23:00,
2013-06-03 04:28:00,43.7,41.5,29.99,SE,135,0.0,0.0,92,0.00,,,0.00,WUHU21623XXSP,2013-06-03 09:28:00,
2013-06-03 04:33:00,43.9,42.0,29.99,SW,225,0.0,0.0,93,0.00,,,0.00,WUHU21623XXSP,2013-06-03 09:33:00,
2013-06-03 04:38:00,43.5,41.6,29.99,South,180,0.0,0.0,93,0.00,,,0.00,WUHU21623XXSP,2013-06-03 09:38:00,
2013-06-03 04:43:00,43.5,41.6,29.99,South,180,0.0,0.0,93,0.00,,,0.00,WUHU21623XXSP,2013-06-03 09:43:00,
2013-06-03 04:48:00,43.3,41.5,29.99,SSE,157,0.0,0.0,93,0.00,,,0.00,WUHU21623XXSP,2013-06-03 09:48:00,
2013-06-03 04:53:00,43.2,41.3,29.99,SSE,157,0.0,0.0,93,0.00,,,0.00,WUHU21623XXSP,2013-06-03 09:53:00,
2013-06-03 04:58:00,43.2,41.3,29.99,ESE,112,0.0,0.0,93,0.00,,,0.00,WUHU21623XXSP,2013-06-03 09:58:00,
2013-06-03 05:03:00,43.2,41.3,29.99,SE,135,0.0,0.0,93,0.00,,,0.00,WUHU21623XXSP,2013-06-03 10:03:00,
2013-06-03 05:08:00,43.2,41.3,29.99,SE,135,0.0,1.1,93,0.00,,,0.00,WUHU21623XXSP,2013-06-03 10:08:00,
2013-06-03 05:13:00,43.3,41.5,29.99,South,180,0.0,1.3,93,0.00,,,0.00,WUHU21623XXSP,2013-06-03 10:13:00,
2013-06-03 05:18:00,43.5,41.6,29.99,ESE,112,0.0,1.3,93,0.00,,,0.00,WUHU21623XXSP,2013-06-03 10:18:00,
2013-06-03 05:23:00,43.3,41.5,29.99,SSE,157,0.0,0.0,93,0.00,,,0.00,WUHU21623XXSP,2013-06-03 10:23:00,
2013-06-03 05:28:00,43.3,41.5,29.99,SE,135,0.0,1.1,93,0.00,,,0.00,WUHU21623XXSP,2013-06-03 10:28:00,
2013-06-03 05:33:00,43.2,41.3,29.99,SSE,157,0.0,1.1,93,0.00,,,0.00,WUHU21623XXSP,2013-06-03 10:33:00,
2013-06-03 05:38:00,43.2,41.3,29.99,SE,135,0.0,0.0,93,0.00,,,0.00,WUHU21623XXSP,2013-06-03 10:38:00,
2013-06-03 05:43:00,43.2,41.3,29.99,SSE,157,0.0,0.0,93,0.00,,,0.00,WUHU21623XXSP,2013-06-03 10:43:00,
2013-06-03 05:48:00,43.2,41.3,29.99,SSE,157,0.0,0.0,93,0.00,,,0.00,WUHU21623XXSP,2013-06-03 10:48:00,
2013-06-03 05:53:00,43.0,41.1,30.00,SSE,157,0.0,0.0,93,0.00,,,0.00,WUHU21623XXSP,2013-06-03 10:53:00,
2013-06-03 05:58:00,43.2,41.3,30.00,SSE,157,0.0,0.0,93,0.00,,,0.00,WUHU21623XXSP,2013-06-03 10:58:00,
2013-06-03 06:03:00,43.2,41.3,30.00,SSE,157,0.0,0.0,93,0.00,,,0.00,WUHU21623XXSP,2013-06-03 11:03:00,
2013-06-03 06:08:00,43.3,41.5,30.00,SSE,157,0.0,0.0,93,0.00,,,0.00,WUHU21623XXSP,2013-06-03 11:08:00,
2013-06-03 06:13:00,43.5,41.9,30.00,SE,135,0.0,0.0,94,0.00,,,0.00,WUHU21623XXSP,2013-06-03 11:13:00,
2013-06-03 06:18:00,43.9,42.3,30.00,SE,135,0.0,0.0,94,0.00,,,0.00,WUHU21623XXSP,2013-06-03 11:18:00,
2013-06-03 06:23:00,43.9,42.3,30.01,SE,135,0.0,0.0,94,0.00,,,0.00,WUHU21623XXSP,2013-06-03 11:23:00,
2013-06-03 06:28:00,43.9,42.3,30.01,SE,135,0.0,0.0,94,0.00,,,0.00,WUHU21623XXSP,2013-06-03 11:28:00,
2013-06-03 06:33:00,43.9,42.3,30.01,SE,135,0.0,0.0,94,0.00,,,0.00,WUHU21623XXSP,2013-06-03 11:33:00,
2013-06-03 06:38:00,44.4,42.8,30.00,SE,135,0.0,0.0,94,0.00,,,0.00,WUHU21623XXSP,2013-06-03 11:38:00,
2013-06-03 06:43:00,44.8,43.2,30.01,SE,135,0.0,0.0,94,0.00,,,0.00,WUHU21623XXSP,2013-06-03 11:43:00,
2013-06-03 06:48:00,46.0,44.4,30.01,SW,225,2.0,3.1,94,0.00,,,0.00,WUHU21623XXSP,2013-06-03 11:48:00,
2013-06-03 06:53:00,46.9,45.0,30.01,West,270,0.0,3.1,93,0.00,,,0.00,WUHU21623XXSP,2013-06-03 11:53:00,
2013-06-03 06:58:00,47.5,45.6,30.02,West,270,0.0,3.1,93,0.00,,,0.00,WUHU21623XXSP,2013-06-03 11:58:00,
2013-06-03 07:03:00,48.2,46.6,30.01,South,180,0.0,3.8,94,0.00,,,0.00,WUHU21623XXSP,2013-06-03 12:03:00,
2013-06-03 07:08:00,48.9,47.2,30.01,SW,225,0.0,3.8,94,0.00,,,0.00,WUHU21623XXSP,2013-06-03 12:08:00,
2013-06-03 07:13:00,49.6,47.6,30.01,South,180,1.3,2.2,93,0.00,,,0.00,WUHU21623XXSP,2013-06-03 12:13:00,
2013-06-03 07:18:00,49.8,48.1,30.01,WSW,247,2.0,3.8,94,0.00,,,0.00,WUHU21623XXSP,2013-06-03 12:18:00,
2013-06-03 07:23:00,50.7,48.7,30.02,SSW,202,2.5,3.8,93,0.00,,,0.00,WUHU21623XXSP,2013-06-03 12:23:00,
2013-06-03 07:28:00,51.4,49.4,30.02,West,270,0.0,3.6,93,0.00,,,0.00,WUHU21623XXSP,2013-06-03 12:28:00,
2013-06-03 07:33:00,52.2,50.1,30.02,SSW,202,3.6,4.0,93,0.00,,,0.00,WUHU21623XXSP,2013-06-03 12:33:00,
2013-06-03 07:38:00,52.3,50.0,30.02,SSW,202,1.6,4.5,92,0.00,,,0.00,WUHU21623XXSP,2013-06-03 12:38:00,
2013-06-03 07:43:00,52.5,49.9,30.02,SSW,202,3.8,4.5,91,0.00,,,0.00,WUHU21623XXSP,2013-06-03 12:43:00,
2013-06-03 07:48:00,53.2,50.6,30.02,West,270,0.0,4.5,91,0.00,,,0.00,WUHU21623XXSP,2013-06-03 12:48:00,
2013-06-03 07:53:00,53.4,50.5,30.02,SSW,202,2.5,4.0,90,0.00,,,0.00,WUHU21623XXSP,2013-06-03 12:53:00,
2013-06-03 07:58:00,53.6,50.4,30.01,SW,225,4.9,4.9,89,0.00,,,0.00,WUHU21623XXSP,2013-06-03 12:58:00,
2013-06-03 08:03:00,54.1,50.6,30.01,SSW,202,0.0,4.9,88,0.00,,,0.00,WUHU21623XXSP,2013-06-03 13:03:00,
2013-06-03 08:08:00,54.7,50.8,30.02,SSW,202,3.6,3.6,87,0.00,,,0.00,WUHU21623XXSP,2013-06-03 13:08:00,
2013-06-03 08:13:00,54.9,50.7,30.02,SSW,202,2.0,5.4,86,0.00,,,0.00,WUHU21623XXSP,2013-06-03 13:13:00,
2013-06-03 08:18:00,55.2,50.7,30.03,WSW,247,1.1,5.4,85,0.00,,,0.00,WUHU21623XXSP,2013-06-03 13:18:00,
2013-06-03 08:23:00,55.8,50.9,30.03,SSW,202,0.0,5.4,84,0.00,,,0.00,WUHU21623XXSP,2013-06-03 13:23:00,
2013-06-03 08:28:00,56.1,51.0,30.02,SW,225,6.7,6.7,83,0.00,,,0.00,WUHU21623XXSP,2013-06-03 13:28:00,
2013-06-03 08:33:00,56.3,50.5,30.03,WSW,247,0.0,6.7,81,0.00,,,0.00,WUHU21623XXSP,2013-06-03 13:33:00,
2013-06-03 08:38:00,56.8,50.4,30.02,SSE,157,0.0,6.7,80,0.00,,,0.00,WUHU21623XXSP,2013-06-03 13:38:00,
2013-06-03 08:43:00,57.7,51.6,30.04,SSW,202,1.3,5.6,80,0.00,,,0.00,WUHU21623XXSP,2013-06-03 13:43:00,
2013-06-03 08:48:00,57.6,50.7,30.03,WSW,247,2.0,7.6,78,0.00,,,0.00,WUHU21623XXSP,2013-06-03 13:48:00,
2013-06-03 08:53:00,58.1,50.9,30.04,SSW,202,1.8,7.6,77,0.00,,,0.00,WUHU21623XXSP,2013-06-03 13:53:00,
2013-06-03 08:58:00,58.8,50.9,30.03,SSE,157,1.1,6.9,75,0.00,,,0.00,WUHU21623XXSP,2013-06-03 13:58:00,
2013-06-03 09:03:00,58.8,50.2,30.03,SSW,202,2.2,6.9,73,0.00,,,0.00,WUHU21623XXSP,2013-06-03 14:03:00,
2013-06-03 09:08:00,59.7,51.1,30.03,SSW,202,4.5,6.9,73,0.00,,,0.00,WUHU21623XXSP,2013-06-03 14:08:00,
2013-06-03 09:13:00,59.9,50.9,30.03,West,270,2.2,6.5,72,0.00,,,0.00,WUHU21623XXSP,2013-06-03 14:13:00,
2013-06-03 09:18:00,59.7,50.0,30.03,SW,225,1.1,8.5,70,0.00,,,0.00,WUHU21623XXSP,2013-06-03 14:18:00,
2013-06-03 09:23:00,60.1,50.4,30.03,SSW,202,0.9,8.7,70,0.00,,,0.00,WUHU21623XXSP,2013-06-03 14:23:00,
2013-06-03 09:28:00,60.6,50.1,30.03,South,180,2.7,8.7,68,0.00,,,0.00,WUHU21623XXSP,2013-06-03 14:28:00,
2013-06-03 09:33:00,61.0,50.4,30.03,NW,315,1.6,6.5,68,0.00,,,0.00,WUHU21623XXSP,2013-06-03 14:33:00,
2013-06-03 09:38:00,61.3,49.9,30.03,SSW,202,6.3,9.2,66,0.00,,,0.00,WUHU21623XXSP,2013-06-03 14:38:00,
2013-06-03 09:43:00,61.7,50.2,30.03,South,180,2.5,9.2,66,0.00,,,0.00,WUHU21623XXSP,2013-06-03 14:43:00,
2013-06-03 09:48:00,61.2,47.3,30.02,SSW,202,6.5,9.6,60,0.00,,,0.00,WUHU21623XXSP,2013-06-03 14:48:00,
2013-06-03 09:53:00,61.7,48.6,30.03,SSW,202,4.9,9.6,62,0.00,,,0.00,WUHU21623XXSP,2013-06-03 14:53:00,
2013-06-03 09:58:00,61.9,48.3,30.03,WSW,247,4.5,11.0,61,0.00,,,0.00,WUHU21623XXSP,2013-06-03 14:58:00,
2013-06-03 10:03:00,61.9,47.4,30.03,SW,225,4.5,11.0,59,0.00,,,0.00,WUHU21623XXSP,2013-06-03 15:03:00,
2013-06-03 10:08:00,62.4,47.4,30.02,SSW,202,5.6,9.8,58,0.00,,,0.00,WUHU21623XXSP,2013-06-03 15:08:00,
2013-06-03 10:13:00,62.8,47.3,30.02,SSW,202,5.8,9.8,57,0.00,,,0.00,WUHU21623XXSP,2013-06-03 15:13:00,
2013-06-03 10:18:00,62.8,46.8,30.03,WSW,247,0.9,8.1,56,0.00,,,0.00,WUHU21623XXSP,2013-06-03 15:18:00,
2013-06-03 10:23:00,63.7,48.1,30.03,SSW,202,3.6,8.1,57,0.00,,,0.00,WUHU21623XXSP,2013-06-03 15:23:00,
2013-06-03 10:28:00,63.7,47.6,30.03,SW,225,5.6,8.5,56,0.00,,,0.00,WUHU21623XXSP,2013-06-03 15:28:00,
2013-06-03 10:33:00,63.7,47.6,30.02,SW,225,5.4,8.5,56,0.00,,,0.00,WUHU21623XXSP,2013-06-03 15:33:00,
2013-06-03 10:38:00,63.5,46.0,30.03,WSW,247,4.5,11.0,53,0.00,,,0.00,WUHU21623XXSP,2013-06-03 15:38:00,
2013-06-03 10:43:00,63.3,45.3,30.02,SW,225,7.2,11.0,52,0.00,,,0.00,WUHU21623XXSP,2013-06-03 15:43:00,
2013-06-03 10:48:00,63.1,46.1,30.02,West,270,2.9,9.6,54,0.00,,,0.00,WUHU21623XXSP,2013-06-03 15:48:00,
2013-06-03 10:53:00,63.5,46.0,30.02,SW,225,10.1,10.1,53,0.00,,,0.00,WUHU21623XXSP,2013-06-03 15:53:00,
2013-06-03 10:58:00,64.0,46.5,30.02,SW,225,6.0,10.7,53,0.00,,,0.00,WUHU21623XXSP,2013-06-03 15:58:00,
2013-06-03 11:03:00,63.7,45.6,30.02,WSW,247,1.8,9.8,52,0.00,,,0.00,WUHU21623XXSP,2013-06-03 16:03:00,
2013-06-03 11:08:00,63.9,46.3,30.01,SW,225,6.5,8.7,53,0.00,,,0.00,WUHU21623XXSP,2013-06-03 16:08:00,
2013-06-03 11:13:00,64.2,46.6,30.01,WSW,247,4.7,8.7,53,0.00,,,0.00,WUHU21623XXSP,2013-06-03 16:13:00,
2013-06-03 11:18:00,64.6,47.0,30.01,SSW,202,5.4,8.3,53,0.00,,,0.00,WUHU21623XXSP,2013-06-03 16:18:00,
2013-06-03 11:23:00,64.8,47.1,30.02,ENE,67,0.0,8.3,53,0.00,,,0.00,WUHU21623XXSP,2013-06-03 16:23:00,
2013-06-03 11:28:00,64.6,46.0,30.01,SSW,202,10.5,10.5,51,0.00,,,0.00,WUHU21623XXSP,2013-06-03 16:28:00,
2013-06-03 11:33:00,64.9,46.8,30.01,West,270,6.0,10.5,52,0.00,,,0.00,WUHU21623XXSP,2013-06-03 16:33:00,
2013-06-03 11:38:00,64.9,45.9,30.01,South,180,2.5,7.8,50,0.00,,,0.00,WUHU21623XXSP,2013-06-03 16:38:00,
2013-06-03 11:43:00,64.9,46.3,30.01,SW,225,3.8,9.6,51,0.00,,,0.00,WUHU21623XXSP,2013-06-03 16:43:00,
2013-06-03 11:48:00,65.3,46.7,30.01,South,180,4.7,11.9,51,0.00,,,0.00,WUHU21623XXSP,2013-06-03 16:48:00,
2013-06-03 11:53:00,65.8,47.2,30.01,SW,225,1.6,11.9,51,0.00,,,0.00,WUHU21623XXSP,2013-06-03 16:53:00,
2013-06-03 11:58:00,65.7,46.0,30.01,SSW,202,4.3,10.1,49,0.00,,,0.00,WUHU21623XXSP,2013-06-03 16:58:00,
2013-06-03 12:03:00,66.4,46.1,30.01,SW,225,6.0,10.1,48,0.00,,,0.00,WUHU21623XXSP,2013-06-03 17:03:00,
2013-06-03 12:08:00,65.5,45.2,30.01,SSE,157,2.9,7.2,48,0.00,,,0.00,WUHU21623XXSP,2013-06-03 17:08:00,
2013-06-03 12:13:00,66.0,45.8,30.01,South,180,3.6,6.9,48,0.00,,,0.00,WUHU21623XXSP,2013-06-03 17:13:00,
2013-06-03 12:18:00,66.0,46.3,30.01,SSW,202,4.7,7.4,49,0.00,,,0.00,WUHU21623XXSP,2013-06-03 17:18:00,
2013-06-03 12:23:00,66.4,46.1,30.00,NNE,22,0.0,7.4,48,0.00,,,0.00,WUHU21623XXSP,2013-06-03 17:23:00,
2013-06-03 12:28:00,66.4,45.5,30.00,SW,225,6.3,10.7,47,0.00,,,0.00,WUHU21623XXSP,2013-06-03 17:28:00,
2013-06-03 12:33:00,66.7,45.2,30.00,WNW,292,0.0,10.7,46,0.00,,,0.00,WUHU21623XXSP,2013-06-03 17:33:00,
2013-06-03 12:38:00,67.8,46.2,30.00,NW,315,4.5,6.3,46,0.00,,,0.00,WUHU21623XXSP,2013-06-03 17:38:00,
2013-06-03 12:43:00,67.5,45.9,30.00,SW,225,3.1,7.8,46,0.00,,,0.00,WUHU21623XXSP,2013-06-03 17:43:00,
2013-06-03 12:48:00,66.9,45.4,30.00,SW,225,4.0,9.2,46,0.00,,,0.00,WUHU21623XXSP,2013-06-03 17:48:00,
2013-06-03 12:53:00,67.1,45.6,30.00,West,270,0.0,9.2,46,0.00,,,0.00,WUHU21623XXSP,2013-06-03 17:53:00,
2013-06-03 12:58:00,68.5,46.9,30.00,North,0,0.9,4.5,46,0.00,,,0.00,WUHU21623XXSP,2013-06-03 17:58:00,
2013-06-03 13:03:00,68.9,46.6,30.00,SW,225,3.1,3.6,45,0.00,,,0.00,WUHU21623XXSP,2013-06-03 18:03:00,
2013-06-03 13:08:00,69.1,45.6,30.00,WSW,247,5.1,8.5,43,0.00,,,0.00,WUHU21623XXSP,2013-06-03 18:08:00,
2013-06-03 13:13:00,68.5,45.7,30.00,West,270,3.4,9.2,44,0.00,,,0.00,WUHU21623XXSP,2013-06-03 18:13:00,
2013-06-03 13:18:00,69.1,45.6,29.99,SSW,202,3.4,9.2,43,0.00,,,0.00,WUHU21623XXSP,2013-06-03 18:18:00,
2013-06-03 13:23:00,69.4,44.5,29.99,NNW,337,4.9,7.2,40,0.00,,,0.00,WUHU21623XXSP,2013-06-03 18:23:00,
2013-06-03 13:28:00,69.3,42.5,29.99,NNW,337,2.5,7.2,38,0.00,,,0.00,WUHU21623XXSP,2013-06-03 18:28:00,
2013-06-03 13:33:00,69.4,45.3,29.99,North,0,4.0,6.0,42,0.00,,,0.00,WUHU21623XXSP,2013-06-03 18:33:00,
2013-06-03 13:38:00,68.9,44.8,29.99,North,0,3.8,7.2,42,0.00,,,0.00,WUHU21623XXSP,2013-06-03 18:38:00,
2013-06-03 13:43:00,67.8,43.8,29.99,NNW,337,3.1,7.2,42,0.00,,,0.00,WUHU21623XXSP,2013-06-03 18:43:00,
2013-06-03 13:48:00,68.2,44.7,29.99,NW,315,3.4,6.0,43,0.00,,,0.00,WUHU21623XXSP,2013-06-03 18:48:00,
2013-06-03 13:53:00,68.4,43.7,29.98,WNW,292,0.0,5.8,41,0.00,,,0.00,WUHU21623XXSP,2013-06-03 18:53:00,
2013-06-03 13:58:00,69.3,42.5,29.98,WNW,292,6.3,8.3,38,0.00,,,0.00,WUHU21623XXSP,2013-06-03 18:58:00,
2013-06-03 14:03:00,68.7,44.0,29.98,SW,225,6.0,8.3,41,0.00,,,0.00,WUHU21623XXSP,2013-06-03 19:03:00,
2013-06-03 14:08:00,69.4,41.9,29.98,NNW,337,3.6,6.3,37,0.00,,,0.00,WUHU21623XXSP,2013-06-03 19:08:00,
2013-06-03 14:13:00,69.4,42.6,29.99,WSW,247,1.3,9.2,38,0.00,,,0.00,WUHU21623XXSP,2013-06-03 19:13:00,
2013-06-03 14:18:00,69.6,42.0,29.98,WNW,292,0.0,9.2,37,0.00,,,0.00,WUHU21623XXSP,2013-06-03 19:18:00,
2013-06-03 14:23:00,70.0,42.2,29.98,NW,315,3.4,9.8,37,0.00,,,0.00,WUHU21623XXSP,2013-06-03 19:23:00,
2013-06-03 14:28:00,69.8,41.6,29.97,NNE,22,5.8,9.8,36,0.00,,,0.00,WUHU21623XXSP,2013-06-03 19:28:00,
2013-06-03 14:33:00,69.6,42.0,29.98,NNE,22,2.2,6.9,37,0.00,,,0.00,WUHU21623XXSP,2013-06-03 19:33:00,
2013-06-03 14:38:00,69.8,42.2,29.98,NW,315,3.4,4.9,37,0.00,,,0.00,WUHU21623XXSP,2013-06-03 19:38:00,
2013-06-03 14:43:00,70.0,43.1,29.98,WSW,247,2.9,4.9,38,0.00,,,0.00,WUHU21623XXSP,2013-06-03 19:43:00,
2013-06-03 14:48:00,70.3,42.7,29.97,WSW,247,0.0,4.9,37,0.00,,,0.00,WUHU21623XXSP,2013-06-03 19:48:00,
2013-06-03 14:53:00,70.9,43.2,29.98,WNW,292,0.0,6.5,37,0.00,,,0.00,WUHU21623XXSP,2013-06-03 19:53:00,
2013-06-03 14:58:00,70.3,44.2,29.97,NW,315,2.2,6.5,39,0.00,,,0.00,WUHU21623XXSP,2013-06-03 19:58:00,
2013-06-03 15:03:00,70.5,44.3,29.97,WSW,247,2.0,4.3,39,0.00,,,0.00,WUHU21623XXSP,2013-06-03 20:03:00,
2013-06-03 15:08:00,70.9,45.4,29.96,West,270,0.9,3.8,40,0.00,,,0.00,WUHU21623XXSP,2013-06-03 20:08:00,
2013-06-03 15:13:00,71.1,44.1,29.97,NNE,22,0.7,4.3,38,0.00,,,0.00,WUHU21623XXSP,2013-06-03 20:13:00,
2013-06-03 15:18:00,71.2,42.8,29.97,WNW,292,0.0,4.3,36,0.00,,,0.00,WUHU21623XXSP,2013-06-03 20:18:00,
2013-06-03 15:23:00,71.2,45.0,29.96,SW,225,5.1,5.1,39,0.00,,,0.00,WUHU21623XXSP,2013-06-03 20:23:00,
2013-06-03 15:28:00,69.6,43.5,29.96,East,90,0.0,7.2,39,0.00,,,0.00,WUHU21623XXSP,2013-06-03 20:28:00,
2013-06-03 15:33:00,69.4,44.7,29.96,West,270,2.9,7.2,41,0.00,,,0.00,WUHU21623XXSP,2013-06-03 20:33:00,
2013-06-03 15:38:00,70.0,45.2,29.96,SSW,202,5.4,7.8,41,0.00,,,0.00,WUHU21623XXSP,2013-06-03 20:38:00,
2013-06-03 15:43:00,69.1,44.4,29.95,South,180,0.7,7.8,41,0.00,,,0.00,WUHU21623XXSP,2013-06-03 20:43:00,
2013-06-03 15:48:00,68.7,44.6,29.96,NNE,22,2.5,5.6,42,0.00,,,0.00,WUHU21623XXSP,2013-06-03 20:48:00,
2013-06-03 15:53:00,69.6,44.3,29.96,ESE,112,1.6,2.9,40,0.00,,,0.00,WUHU21623XXSP,2013-06-03 20:53:00,
2013-06-03 15:58:00,70.3,46.1,29.96,WSW,247,6.0,6.0,42,0.00,,,0.00,WUHU21623XXSP,2013-06-03 20:58:00,
2013-06-03 16:03:00,70.7,45.2,29.96,WNW,292,4.3,6.3,37,0.00,,,0.00,WUHU21623XXSP,2013-06-03 21:03:00,
2013-06-03 16:08:00,71.4,44.4,29.96,WSW,247,2.9,6.3,38,0.00,,,0.00,WUHU21623XXSP,2013-06-03 21:08:00,
2013-06-03 16:13:00,71.4,44.4,29.96,SW,225,0.9,4.0,38,0.00,,,0.00,WUHU21623XXSP,2013-06-03 21:13:00,
2013-06-03 16:18:00,71.8,44.7,29.96,NW,315,1.1,5.8,37,0.00,,,0.00,WUHU21623XXSP,2013-06-03 21:18:00,
2013-06-03 16:23:00,71.8,43.2,29.96,NE,45,0.0,5.8,36,0.00,,,0.00,WUHU21623XXSP,2013-06-03 21:23:00,
2013-06-03 16:28:00,72.0,44.9,29.96,West,270,3.1,4.5,38,0.00,,,0.00,WUHU21623XXSP,2013-06-03 21:28:00,
2013-06-03 16:33:00,72.3,44.4,29.96,NNW,337,3.6,4.5,37,0.00,,,0.00,WUHU21623XXSP,2013-06-03 21:33:00,
2013-06-03 16:38:00,72.1,45.0,29.95,North,0,1.3,5.1,38,0.00,,,0.00,WUHU21623XXSP,2013-06-03 21:38:00,
2013-06-03 16:43:00,70.9,44.7,29.95,NW,315,0.0,5.1,39,0.00,,,0.00,WUHU21623XXSP,2013-06-03 21:43:00,
2013-06-03 16:48:00,70.5,44.3,29.95,SSW,202,2.5,4.3,39,0.00,,,0.00,WUHU21623XXSP,2013-06-03 21:48:00,
2013-06-03 16:53:00,69.8,44.4,29.96,WSW,247,2.5,3.8,40,0.00,,,0.00,WUHU21623XXSP,2013-06-03 21:53:00,
2013-06-03 16:58:00,69.8,45.0,29.96,SSW,202,3.4,5.4,41,0.00,,,0.00,WUHU21623XXSP,2013-06-03 21:58:00,
2013-06-03 17:03:00,70.5,44.3,29.96,NE,45,0.0,5.4,39,0.00,,,0.00,WUHU21623XXSP,2013-06-03 22:03:00,
2013-06-03 17:08:00,71.2,45.7,29.95,SE,135,0.0,4.9,40,0.00,,,0.00,WUHU21623XXSP,2013-06-03 22:08:00,
2013-06-03 17:13:00,71.4,45.1,29.95,WSW,247,0.0,4.9,39,0.00,,,0.00,WUHU21623XXSP,2013-06-03 22:13:00,
2013-06-03 17:18:00,70.3,44.9,29.95,SW,225,6.9,7.6,40,0.00,,,0.00,WUHU21623XXSP,2013-06-03 22:18:00,
2013-06-03 17:23:00,68.9,44.2,29.94,South,180,5.6,7.6,41,0.00,,,0.00,WUHU21623XXSP,2013-06-03 22:23:00,
2013-06-03 17:28:00,68.4,44.3,29.95,SW,225,0.9,7.6,42,0.00,,,0.00,WUHU21623XXSP,2013-06-03 22:28:00,
2013-06-03 17:33:00,68.2,44.1,29.95,SW,225,0.0,5.1,42,0.00,,,0.00,WUHU21623XXSP,2013-06-03 22:33:00,
2013-06-03 17:38:00,68.4,44.3,29.95,South,180,2.0,4.7,42,0.00,,,0.00,WUHU21623XXSP,2013-06-03 22:38:00,
2013-06-03 17:43:00,68.4,44.3,29.95,SSW,202,1.1,4.7,42,0.00,,,0.00,WUHU21623XXSP,2013-06-03 22:43:00,
2013-06-03 17:48:00,68.4,44.3,29.95,South,180,2.2,4.0,42,0.00,,,0.00,WUHU21623XXSP,2013-06-03 22:48:00,
2013-06-03 17:53:00,68.5,45.1,29.95,South,180,1.3,6.0,43,0.00,,,0.00,WUHU21623XXSP,2013-06-03 22:53:00,
2013-06-03 17:58:00,68.4,44.9,29.94,South,180,2.5,6.0,43,0.00,,,0.00,WUHU21623XXSP,2013-06-03 22:58:00,
2013-06-03 18:03:00,68.7,45.8,29.94,SSE,157,2.5,4.9,44,0.00,,,0.00,WUHU21623XXSP,2013-06-03 23:03:00,
2013-06-03 18:08:00,69.1,46.1,29.94,SSE,157,2.0,6.0,44,0.00,,,0.00,WUHU21623XXSP,2013-06-03 23:08:00,
2013-06-03 18:13:00,69.6,45.4,29.94,South,180,3.6,6.3,42,0.00,,,0.00,WUHU21623XXSP,2013-06-03 23:13:00,
2013-06-03 18:18:00,69.8,45.6,29.95,South,180,3.6,6.9,42,0.00,,,0.00,WUHU21623XXSP,2013-06-03 23:18:00,
2013-06-03 18:23:00,70.2,45.9,29.95,SW,225,2.2,6.9,42,0.00,,,0.00,WUHU21623XXSP,2013-06-03 23:23:00,
2013-06-03 18:28:00,70.3,46.1,29.94,SW,225,7.4,7.4,42,0.00,,,0.00,WUHU21623XXSP,2013-06-03 23:28:00,
2013-06-03 18:33:00,69.8,45.6,29.94,South,180,3.8,7.4,42,0.00,,,0.00,WUHU21623XXSP,2013-06-03 23:33:00,
2013-06-03 18:38:00,69.8,45.6,29.94,SSW,202,4.9,7.4,42,0.00,,,0.00,WUHU21623XXSP,2013-06-03 23:38:00,
2013-06-03 18:43:00,69.4,45.3,29.94,SSW,202,0.0,5.8,42,0.00,,,0.00,WUHU21623XXSP,2013-06-03 23:43:00,
2013-06-03 18:48:00,69.4,45.3,29.94,South,180,2.9,5.8,42,0.00,,,0.00,WUHU21623XXSP,2013-06-03 23:48:00,
2013-06-03 18:53:00,69.4,45.3,29.95,SSW,202,3.8,5.1,42,0.00,,,0.00,WUHU21623XXSP,2013-06-03 23:53:00,
2013-06-03 18:58:00,69.8,45.6,29.95,SW,225,0.0,5.1,42,0.00,,,0.00,WUHU21623XXSP,2013-06-03 23:58:00,
2013-06-03 19:03:00,69.6,45.4,29.96,SW,225,6.5,6.5,42,0.00,,,0.00,WUHU21623XXSP,2013-06-04 00:03:00,
2013-06-03 19:08:00,68.5,45.1,29.96,SW,225,3.8,10.3,43,0.00,,,0.00,WUHU21623XXSP,2013-06-04 00:08:00,
2013-06-03 19:12:00,68.4,45.5,29.96,SW,225,4.7,10.3,44,0.00,,,0.00,WUHU21623XXSP,2013-06-04 00:12:00,
2013-06-03 19:18:00,67.8,45.0,29.96,South,180,4.0,7.6,44,0.00,,,0.00,WUHU21623XXSP,2013-06-04 00:18:00,
2013-06-03 19:23:00,67.6,45.4,29.96,SSW,202,3.8,7.6,45,0.00,,,0.00,WUHU21623XXSP,2013-06-04 00:23:00,
2013-06-03 19:28:00,67.3,45.1,29.96,SSW,202,2.2,5.4,45,0.00,,,0.00,WUHU21623XXSP,2013-06-04 00:28:00,
2013-06-03 19:33:00,66.7,45.2,29.96,SSW,202,2.9,5.1,46,0.00,,,0.00,WUHU21623XXSP,2013-06-04 00:33:00,
2013-06-03 19:38:00,66.0,45.2,29.96,SSE,157,1.1,5.4,47,0.00,,,0.00,WUHU21623XXSP,2013-06-04 00:38:00,
2013-06-03 19:43:00,65.5,45.2,29.96,SSW,202,2.0,5.4,48,0.00,,,0.00,WUHU21623XXSP,2013-06-04 00:43:00,
2013-06-03 19:47:00,65.1,45.4,29.96,SSW,202,2.2,3.8,49,0.00,,,0.00,WUHU21623XXSP,2013-06-04 00:47:00,
2013-06-03 19:52:00,65.3,45.6,29.96,SSW,202,3.1,5.1,49,0.00,,,0.00,WUHU21623XXSP,2013-06-04 00:52:00,
2013-06-03 19:57:00,64.9,45.3,29.96,SSW,202,1.6,5.1,49,0.00,,,0.00,WUHU21623XXSP,2013-06-04 00:57:00,
2013-06-03 20:02:00,64.6,45.5,29.97,SSW,202,2.7,6.0,50,0.00,,,0.00,WUHU21623XXSP,2013-06-04 01:02:00,
2013-06-03 20:07:00,64.2,45.2,29.97,SSW,202,2.9,6.0,50,0.00,,,0.00,WUHU21623XXSP,2013-06-04 01:07:00,
2013-06-03 20:12:00,64.0,45.5,29.97,South,180,3.1,4.3,51,0.00,,,0.00,WUHU21623XXSP,2013-06-04 01:12:00,
2013-06-03 20:17:00,63.5,45.5,29.97,South,180,3.1,4.3,52,0.00,,,0.00,WUHU21623XXSP,2013-06-04 01:17:00,
2013-06-03 20:22:00,63.3,45.3,29.97,SSW,202,3.1,4.7,52,0.00,,,0.00,WUHU21623XXSP,2013-06-04 01:22:00,
2013-06-03 20:27:00,63.1,45.2,29.97,SSW,202,0.0,4.7,52,0.00,,,0.00,WUHU21623XXSP,2013-06-04 01:27:00,
2013-06-03 20:32:00,63.1,44.7,29.98,SSW,202,2.5,5.4,51,0.00,,,0.00,WUHU21623XXSP,2013-06-04 01:32:00,
2013-06-03 20:37:00,63.0,45.0,29.98,South,180,2.2,8.3,52,0.00,,,0.00,WUHU21623XXSP,2013-06-04 01:37:00,
2013-06-03 20:42:00,62.4,44.5,29.98,SE,135,0.7,8.3,52,0.00,,,0.00,WUHU21623XXSP,2013-06-04 01:42:00,
2013-06-03 20:47:00,62.4,44.5,29.98,SW,225,2.9,6.0,52,0.00,,,0.00,WUHU21623XXSP,2013-06-04 01:47:00,
2013-06-03 20:52:00,61.9,44.5,29.97,South,180,3.1,4.5,53,0.00,,,0.00,WUHU21623XXSP,2013-06-04 01:52:00,
2013-06-03 20:57:00,61.7,44.3,29.98,South,180,2.9,4.5,53,0.00,,,0.00,WUHU21623XXSP,2013-06-04 01:57:00,
2013-06-03 21:02:00,61.5,44.7,29.98,SSW,202,2.2,4.3,54,0.00,,,0.00,WUHU21623XXSP,2013-06-04 02:02:00,
2013-06-03 21:07:00,61.0,44.7,29.98,SSW,202,1.6,3.8,55,0.00,,,0.00,WUHU21623XXSP,2013-06-04 02:07:00,
2013-06-03 21:12:00,60.6,44.8,29.98,South,180,2.7,2.7,56,0.00,,,0.00,WUHU21623XXSP,2013-06-04 02:12:00,
2013-06-03 21:17:00,60.6,44.8,29.99,SSW,202,3.4,3.4,56,0.00,,,0.00,WUHU21623XXSP,2013-06-04 02:17:00,
2013-06-03 21:22:00,60.6,44.8,29.98,South,180,6.0,6.0,56,0.00,,,0.00,WUHU21623XXSP,2013-06-04 02:22:00,
2013-06-03 21:27:00,60.6,45.3,29.98,South,180,1.8,6.0,57,0.00,,,0.00,WUHU21623XXSP,2013-06-04 02:27:00,
2013-06-03 21:32:00,60.1,45.2,29.98,SE,135,2.0,6.0,58,0.00,,,0.00,WUHU21623XXSP,2013-06-04 02:32:00,
2013-06-03 21:37:00,59.7,45.4,29.99,SSW,202,5.8,5.8,59,0.00,,,0.00,WUHU21623XXSP,2013-06-04 02:37:00,
2013-06-03 21:42:00,59.7,45.9,29.99,NE,45,1.1,5.8,60,0.00,,,0.00,WUHU21623XXSP,2013-06-04 02:42:00,
2013-06-03 21:47:00,59.4,45.5,29.99,SSW,202,6.0,8.1,60,0.00,,,0.00,WUHU21623XXSP,2013-06-04 02:47:00,
2013-06-03 21:52:00,59.5,45.2,29.99,SSE,157,3.8,9.4,59,0.00,,,0.00,WUHU21623XXSP,2013-06-04 02:52:00,
2013-06-03 21:57:00,59.5,45.2,29.99,South,180,6.3,11.4,59,0.00,,,0.00,WUHU21623XXSP,2013-06-04 02:57:00,
2013-06-03 22:02:00,59.2,44.8,30.00,South,180,4.5,11.4,59,0.00,,,0.00,WUHU21623XXSP,2013-06-04 03:02:00,
2013-06-03 22:07:00,59.2,44.8,30.00,South,180,6.0,10.5,59,0.00,,,0.00,WUHU21623XXSP,2013-06-04 03:07:00,
2013-06-03 22:12:00,58.8,44.5,30.00,SSE,157,6.3,10.5,59,0.00,,,0.00,WUHU21623XXSP,2013-06-04 03:12:00,
2013-06-03 22:17:00,58.8,44.5,30.01,SSE,157,6.0,8.3,59,0.00,,,0.00,WUHU21623XXSP,2013-06-04 03:17:00,
2013-06-03 22:22:00,58.8,44.5,30.01,SSE,157,5.1,8.3,59,0.00,,,0.00,WUHU21623XXSP,2013-06-04 03:22:00,
2013-06-03 22:27:00,58.8,45.0,30.01,SSE,157,5.6,6.9,60,0.00,,,0.00,WUHU21623XXSP,2013-06-04 03:27:00,
2013-06-03 22:32:00,58.8,45.0,30.01,SSE,157,3.8,9.4,60,0.00,,,0.00,WUHU21623XXSP,2013-06-04 03:32:00,
2013-06-03 22:37:00,58.8,44.5,30.01,South,180,7.4,9.4,59,0.00,,,0.00,WUHU21623XXSP,2013-06-04 03:37:00,
2013-06-03 22:42:00,58.6,44.8,30.02,SSW,202,3.8,11.0,60,0.00,,,0.00,WUHU21623XXSP,2013-06-04 03:42:00,
2013-06-03 22:47:00,58.5,44.2,30.02,SSW,202,3.8,11.0,59,0.00,,,0.00,WUHU21623XXSP,2013-06-04 03:47:00,
2013-06-03 22:52:00,58.3,43.6,30.01,South,180,8.5,9.8,58,0.00,,,0.00,WUHU21623XXSP,2013-06-04 03:52:00,
2013-06-03 22:57:00,58.1,43.4,30.02,South,180,8.9,9.8,58,0.00,,,0.00,WUHU21623XXSP,2013-06-04 03:57:00,
2013-06-03 23:01:00,58.1,43.4,30.01,South,180,5.8,9.8,58,0.00,,,0.00,WUHU21623XXSP,2013-06-04 04:01:00,
2013-06-03 23:06:00,57.9,42.8,30.01,South,180,6.5,11.6,57,0.00,,,0.00,WUHU21623XXSP,2013-06-04 04:06:00,
2013-06-03 23:11:00,57.7,42.6,30.02,SSW,202,4.3,11.6,57,0.00,,,0.00,WUHU21623XXSP,2013-06-04 04:11:00,
2013-06-03 23:16:00,57.4,42.7,30.01,SSW,202,4.9,9.2,58,0.00,,,0.00,WUHU21623XXSP,2013-06-04 04:16:00,
2013-06-03 23:21:00,57.0,42.9,30.02,South,180,3.4,9.2,59,0.00,,,0.00,WUHU21623XXSP,2013-06-04 04:21:00,
2013-06-03 23:26:00,56.5,42.8,30.02,South,180,10.1,10.1,60,0.00,,,0.00,WUHU21623XXSP,2013-06-04 04:26:00,
2013-06-03 23:31:00,56.8,42.2,30.02,SSW,202,4.7,10.1,58,0.00,,,0.00,WUHU21623XXSP,2013-06-04 04:31:00,
2013-06-03 23:37:00,56.8,42.2,30.03,South,180,4.5,10.1,58,0.00,,,0.00,WUHU21623XXSP,2013-06-04 04:37:00,
2013-06-03 23:42:00,56.8,42.2,30.03,SSW,202,4.0,7.4,58,0.00,,,0.00,WUHU21623XXSP,2013-06-04 04:42:00,
2013-06-03 23:47:00,56.8,41.8,30.03,SSW,202,2.9,7.4,57,0.00,,,0.00,WUHU21623XXSP,2013-06-04 04:47:00,
2013-06-03 23:52:00,56.7,42.0,30.03,SW,225,0.9,6.9,58,0.00,,,0.00,WUHU21623XXSP,2013-06-04 04:52:00,
2013-06-03 23:57:00,56.3,41.7,30.03,SSE,157,3.8,6.0,58,0.00,,,0.00,WUHU21623XXSP,2013-06-04 04:57:00,